Volver al catálogo

STARLINK-34158

ActivoComunicacionesVLEO
NORAD 63996·PAYLOAD·🇺🇸 United States

Lanzado May 14, 2025 desde Cape Canaveral Space Force Station

Loading…

Próximos Pases (próximas 24 horas)

TLE

ActualizadoSource: CelesTrak SupGP

Época: Sep 15, 2026, 03:35 UTC

1 63996C 25101C   26258.14979167  .00037438  00000+0  13557-2 0  2584
2 63996  43.0037   7.8809 0001513 268.0844  50.0029 15.27566847    14

Sigue STARLINK-34158 en tiempo real con AllMySat

Download on the App Store